Weather Service Report


469 
ASUS44 KSJT 282210
RWRSJT
WEST CENTRAL TEXAS REGIONAL WEATHER ROUNDUP
NATIONAL WEATHER SERVICE SAN ANGELO TX
500 PM CDT SUN MAY 28 2017

NOTE: "FAIR" INDICATES FEW OR NO CLOUDS BELOW 12,000 FEET WITH NO
SIGNIFICANT WEATHER AND/OR OBSTRUCTIONS TO VISIBILITY.

TXZ049-054-064>066-071>073-076>078-098-099-113-114-127-128-139-140-
154-155-168>170-282300
...LOCATIONS ACROSS WEST CENTRAL TEXAS...
  
CITY           SKY/WX    TMP DP  RH WIND       PRES   REMARKS
SAN ANGELO     PTSUNNY   83  60  45 N18G25    29.99F                  
ABILENE        CLOUDY    73  61  65 NE16G23   30.01F                  
DYESS AFB      LGT RAIN  72  64  78 N9        30.02F                  
JUNCTION       CLOUDY    81  67  62 NE20G28   29.93R                  
SWEETWATER     CLOUDY    76  54  45 N12G17    30.06F                  
BROWNWOOD      CLOUDY    77  64  65 NE13G20   29.99R                  
COLEMAN        CLOUDY    78  61  55 N20G28    29.99F                  
SONORA         CLOUDY    84  64  51 NE20G26   29.99F                  
OZONA            N/A     86  57  37 NE17G25   29.99R                  
BRADY          NOT AVBL                                               
$$

TEXAS PANHANDLE/OKLAHOMA PANHANDLE
  
CITY           SKY/WX    TMP DP  RH WIND       PRES   REMARKS
AMARILLO       SUNNY     77  37  23 N9        30.17F                  
BORGER         SUNNY     78  36  21 VRB6      30.14F                  
CANADIAN       SUNNY     80  43  27 NE12      30.10F                  
DALHART        SUNNY     77  33  20 N10       30.19F                  
DUMAS          CLEAR     74  35  23 N7G17     30.17F                  
GUYMON         NOT AVBL                                               
HEREFORD       CLEAR     79  34  19 N10G17    30.17F                  
PAMPA          CLEAR     77  37  23 E6G16     30.15F                  
PERRYTON       MOSUNNY   80  38  22 NW12      30.12F                  
$$

SOUTHERN PANHANDLE/SOUTH PLAINS/ROLLING PLAINS
  
CITY           SKY/WX    TMP DP  RH WIND       PRES   REMARKS
LUBBOCK        MOSUNNY   83  39  21 E9G23     30.10F                  
SNYDER         CLOUDY    80  52  36 NE13G21   30.07S                  
CHILDRESS      SUNNY     84  37  18 N12       30.07F                  
SEMINOLE       CLEAR     83  43  23 E12G18    30.10F                  
$$

PERMIAN BASIN
  
CITY           SKY/WX    TMP DP  RH WIND       PRES   REMARKS
MIDLAND        CLOUDY    84  48  28 E18       30.06F                  
ODESSA         MOSUNNY   84  46  26 E16G25    30.06F                  
WINK           SUNNY     89  44  20 E17G24    30.02F                  
$$

FAR WEST/SOUTHWEST MOUNTAINS/TRANS PECOS
  
CITY           SKY/WX    TMP DP  RH WIND       PRES   REMARKS
ALPINE         CLEAR     79  47  32 NE15G21   30.16F                  
DRYDEN           N/A     92  60  34 NE13G22   29.92F                  
EL PASO        MOSUNNY   87  29  12 NE9G17    30.05F                  
FORT STOCKTON  SUNNY     85  52  32 NE17G23   30.04F                  
GUADALUPE PASS SUNNY     76  39  26 NE29G35   30.18F                  
MARFA          SUNNY     79  45  29 NE17G26   30.12F                  
PECOS          CLEAR     88  46  23 E8        30.02F                  
$$

DALLAS/FORT WORTH METROPLEX
  
CITY           SKY/WX    TMP DP  RH WIND       PRES   REMARKS
DFW AIRPORT    CLOUDY    78  70  76 N12       29.93F                  
FTW MEACHAM    CLOUDY    77  68  73 N10       29.96F                  
DAL-EXECUTIVE  CLOUDY    74  70  87 NE10      29.91F                  
GRAND PRAIRIE  MOSUNNY   77  70  78 NE9G21    29.93F                  
ADDISON        NOT AVBL                                               
MESQUITE       CLOUDY    73  70  88 N9        29.96R                  
LANCASTER      CLOUDY    73  70  90 N13       29.94F                  
$$

NORTH CENTRAL TEXAS
  
CITY           SKY/WX    TMP DP  RH WIND       PRES   REMARKS
SHRMAN/DENISON MOCLDY    80  65  61 N8G17     29.97F                  
GAINESVILLE    CLOUDY    79  61  53 NE12      29.98F                  
BRIDGEPORT     CLOUDY    77  65  65 NE5       29.98F                  
DENTON         PTSUNNY   75  68  78 NE12      29.94F                  
WAXAHACHIE     CLOUDY    74  73  96 N15G23    29.93F                  
GRANBURY       CLOUDY    78  66  67 N9        29.97F                  
$$

WESTERN NORTH TEXAS
  
CITY           SKY/WX    TMP DP  RH WIND       PRES   REMARKS
WICHITA FALLS  PTSUNNY   84  56  38 N9        29.99F                  
VERNON         CLEAR     88  33  14 NE13      30.03F                  
BRECKENRIDGE   DRIZZLE   76  60  57 NE6       29.99F                  
COMANCHE       CLOUDY    76  67  73 N13G22    29.98F                  
$$

CENTRAL AND SOUTH CENTRAL TEXAS
  
CITY           SKY/WX    TMP DP  RH WIND       PRES   REMARKS
AUSTIN/BERGSTM CLOUDY    92  72  51 SE9       29.84F                  
WACO           PTSUNNY   80  72  76 N13       29.91F                  
HILLSBORO      CLOUDY    76  72  87 N10       29.93F                  
TEMPLE         TSTM      78  75  90 N9        29.88F                  
KILLEEN-GRAY   PTSUNNY   77  71  81 N18       29.90F                  
FORT HOOD      PTSUNNY   79  72  78 N15       29.87S                  
GEORGETOWN     PTSUNNY   88  72  58 SE6       29.86F                  
LAGO VISTA     MOCLDY    86  73  66 CALM      29.88F THUNDER          
SAN MARCOS       N/A    N/A N/A N/A SE10        N/A                   
NEW BRAUNFELS  CLOUDY    91  73  55 SE14      29.83F                  
RANDOLPH AFB   MOSUNNY   90  74  59 SE13      29.84F                  
SAN ANTONIO    CLOUDY    89  71  55 SE13      29.85F                  
STINSON        MOSUNNY   92  73  53 SE13G20   29.82F                  
PLEASANTON     NOT AVBL                                               
LA GRANGE      PTSUNNY   93  76  57 SE12      29.83F                  
GIDDINGS       MOCLDY    90  73  57 S7        29.86F                  
$$

EAST TEXAS
  
CITY           SKY/WX    TMP DP  RH WIND       PRES   REMARKS
PARIS          CLOUDY    73  66  78 NE5       29.95S                  
CLARKSVILLE    NOT AVBL                                               
TYLER          TSTM      73  67  81 NE16      29.86F                  
LONGVIEW       LGT RAIN  83  76  79 S5        29.84F                  
PALESTINE      HVY RAIN  80  78  91 CALM      29.87F                  
NACOGDOCHES    CLOUDY    84  75  74 S7        29.84F                  
$$

TEXAS HILL COUNTRY AND EDWARDS PLATEAU
  
CITY           SKY/WX    TMP DP  RH WIND       PRES   REMARKS
LLANO          CLOUDY    81  70  69 N12       29.95R                  
HORSESHOE BAY  NOT AVBL                                               
KERRVILLE      CLOUDY    85  74  70 E7        29.89F THUNDER          
FREDERICKSBRG  TSTM      75  67  75 SE8       29.91R                  
ROCKSPRINGS    LGT RAIN  70  64  83 SE8       30.00R                  
HONDO          CLOUDY    89  73  59 E13       29.82F                  
UVALDE         CLOUDY    87  74  66 CALM      29.84F                  
DEL RIO        CLOUDY    87  75  67 S9        29.83F                  
$$

SOUTHEAST TEXAS
  
CITY           SKY/WX    TMP DP  RH WIND       PRES   REMARKS
COLLEGE STN    PTSUNNY   91  76  61 SE15      29.85F                  
CALDWELL       NOT AVBL                                               
CROCKETT       PTCLDY    90  75  62 S9G17     29.87F                  
BRENHAM        PTSUNNY   92  74  55 SE13G18   29.86F                  
HUNTSVILLE     CLOUDY    90  74  59 S9        29.87F                  
CONROE         CLOUDY    88  74  63 SE15      29.89F                  
HOUSTON BUSH   CLOUDY    88  74  63 S17       29.88F                  
HOUSTON HOBBY  CLOUDY    86  75  69 S12       29.89F                  
PERLAND        CLOUDY    88  75  65 S9G21     29.90F                  
WHARTON        PTCLDY    87  72  60 SE15      29.88F                  
$$

THE UPPER TEXAS COAST
  
CITY           SKY/WX    TMP DP  RH WIND       PRES   REMARKS
ORANGE         MOCLDY    86  76  72 S12G17    29.93F                  
PORT ARTHUR    PTSUNNY   86  75  69 S13       29.90F                  
GALVESTON      PTSUNNY   86  79  79 SE18      29.91F                  
ANGLETON       CLOUDY    86  77  74 SE12      29.90F                  
BAY CITY       CLOUDY    87  77  71 SE9       29.89F                  
$$

TEXAS COASTAL BEND, RIO GRANDE PLAINS DEEP SOUTH TEXAS
  
CITY           SKY/WX    TMP DP  RH WIND       PRES   REMARKS
VICTORIA       PTSUNNY   88  74  63 S16       29.86F                  
BEEVILLE       MOCLDY    89  77  67 SE20G30   29.83F                  
ROCKPORT       MOSUNNY   87  77  72 SE20G25   29.85F                  
PORT ARANSAS   MOCLDY    85  77  78 SE16      29.86F                  
PORT LAVACA    CLOUDY    87  78  76 SE15      29.87F                  
CORPUS CHRISTI CLOUDY    87  77  72 SE23G29   29.84F                  
KINGSVILLE NAS PTSUNNY   90  78  68 SE22      29.82F                  
COTULLA        MOSUNNY  100  67  33 SE17      29.76F                  
LAREDO         MOSUNNY  101  73  40 E14       29.73F                  
BROWNSVILLE    CLOUDY    89  78  70 SE16G25   29.82F                  
PORT ISABEL    CLOUDY    86  79  79 E20       29.82S                  
HEBBRONVILLE   MOCLDY    97  68  38 SE23G29   29.79F                  
MCALLEN        CLOUDY    96  75  50 SE26      29.77F                  
WESLACO        CLOUDY    92  74  55 SE16G25   29.77F                  
FALFURRIAS     PTCLDY    92  76  57 E17G25    29.80S                  
EDINBURG       CLOUDY    97  72  44 SE20G28   29.78F                  
$$
  

Return to Home page


Western Regional Climate Center, wrcc@dri.edu